E5438 Weather Reports


time (UTC)temp
F
wind
direction
speed
knots
gust
knots
rain 1hr
in
rain 24hr
in
rain mn
in
humidity
%
barometer
mb
20260906111021 69 111 0.0 0.0 0.00 0.00 0.00 65 1011.9
20260906110521 68 111 0.0 0.0 0.00 0.00 0.00 67 1011.9
20260906110021 68 111 0.0 0.0 0.00 0.00 0.00 67 1011.8
20260906105521 68 111 0.0 0.9 0.00 0.00 0.00 69 1011.7
20260906105020 68 111 0.0 1.7 0.00 0.00 0.00 68 1011.7
20260906104535 68 111 0.0 1.7 0.00 0.00 0.00 69 1011.7
20260906104020 68 107 0.0 1.7 0.00 0.00 0.00 69 1011.6
20260906103521 68 107 0.0 0.9 0.00 0.00 0.00 68 1011.6
20260906103039 69 103 0.0 0.0 0.00 0.00 0.00 66 1011.4
20260906102520 69 103 0.0 0.0 0.00 0.00 0.00 65 1011.5
20260906102021 69 103 0.0 0.0 0.00 0.00 0.00 65 1011.5
20260906101520 69 103 0.0 0.0 0.00 0.00 0.00 64 1011.7
20260906101023 69 103 0.0 0.0 0.00 0.00 0.00 61 1011.6
20260906100519 69 103 0.0 0.0 0.00 0.00 0.00 59 1011.7
20260906100025 68 103 0.0 0.0 0.00 0.00 0.00 62 1011.7
20260906095517 68 103 0.0 0.0 0.00 0.00 0.00 66 1011.7
20260906095018 68 103 0.0 0.0 0.00 0.00 0.00 71 1011.7
20260906094515 68 103 0.0 0.0 0.00 0.00 0.00 74 1011.7
20260906094015 68 103 0.0 0.0 0.00 0.00 0.00 75 1011.8
20260906093513 68 103 0.0 0.0 0.00 0.00 0.00 77 1011.8
20260906093017 68 103 0.0 0.0 0.00 0.00 0.00 80 1011.7
20260906092512 68 103 0.0 0.0 0.00 0.00 0.00 81 1011.9
20260906092012 68 103 0.0 0.0 0.00 0.00 0.00 81 1011.7
20260906091520 69 103 0.0 0.0 0.00 0.00 0.00 81 1011.7
20260906091010 69 103 0.0 0.0 0.00 0.00 0.00 76 1011.3
20260906090509 69 103 0.0 0.0 0.00 0.00 0.00 76 1011.2
20260906090013 69 103 0.0 0.0 0.00 0.00 0.00 76 1011.2
20260906085513 69 103 0.0 0.0 0.00 0.00 0.00 76 1011.1
20260906085009 69 103 0.0 0.0 0.00 0.00 0.00 76 1011.0
20260906084508 69 103 0.0 0.0 0.00 0.00 0.00 78 1011.1
20260906084008 69 103 0.0 0.0 0.00 0.00 0.00 80 1011.1
20260906083507 69 103 0.0 0.0 0.00 0.00 0.00 82 1011.1
20260906083007 69 89 0.0 0.0 0.00 0.00 0.00 83 1011.0
20260906082506 69 89 0.0 0.0 0.00 0.00 0.00 84 1011.0
20260906082007 69 89 0.0 0.0 0.00 0.00 0.00 84 1011.0
20260906081506 69 89 0.0 0.0 0.00 0.00 0.00 83 1011.0
20260906081005 69 89 0.0 0.0 0.00 0.00 0.00 84 1011.1
20260906080509 70 89 0.0 0.0 0.00 0.00 0.00 85 1011.2
20260906080006 70 89 0.0 0.0 0.00 0.00 0.00 85 1011.3
20260906075504 70 89 0.0 0.0 0.00 0.00 0.00 85 1011.3
20260906075006 70 89 0.0 0.0 0.00 0.00 0.00 86 1011.1
20260906074505 70 89 0.0 0.0 0.00 0.00 0.00 86 1011.1
20260906074004 70 89 0.0 0.0 0.00 0.00 0.00 86 1011.0
20260906073504 70 89 0.0 0.0 0.00 0.00 0.00 86 1011.0
20260906073004 70 89 0.0 0.0 0.00 0.00 0.00 85 1011.0
20260906072504 70 89 0.0 0.0 0.00 0.00 0.00 84 1011.0
20260906072004 70 89 0.0 0.0 0.00 0.00 0.00 83 1011.0
20260906071503 70 89 0.0 0.0 0.00 0.00 0.00 81 1011.0
20260906071006 70 89 0.0 0.0 0.00 0.00 0.00 80 1011.0
20260906070502 69 89 0.0 0.0 0.00 0.00 0.00 81 1011.0
20260906070004 70 89 0.0 0.0 0.00 0.00 0.00 82 1011.0
20260906065503 70 89 0.0 0.0 0.00 0.00 0.00 81 1011.2
20260906065100 70 89 0.0 0.0 0.00 0.00 0.00 83 1011.3
20260906064559 70 89 0.0 0.0 0.00 0.00 0.00 85 1011.4
20260906064059 70 89 0.0 0.0 0.00 0.00 0.00 86 1011.4
20260906063600 70 89 0.0 0.0 0.00 0.00 0.00 86 1011.4
20260906063059 70 89 0.0 0.0 0.00 0.00 0.00 85 1011.5
20260906062558 70 89 0.0 0.0 0.00 0.00 0.00 85 1011.3
20260906062058 70 89 0.0 0.0 0.00 0.00 0.00 84 1011.4
20260906061558 70 89 0.0 0.0 0.00 0.00 0.00 83 1011.4
20260906061057 70 89 0.0 0.0 0.00 0.00 0.00 83 1011.4
20260906060556 70 89 0.0 0.0 0.00 0.00 0.00 84 1011.4
20260906060057 70 89 0.0 0.0 0.00 0.00 0.00 85 1011.5
20260906055556 70 89 0.0 0.0 0.00 0.00 0.00 85 1011.6
20260906055056 70 89 0.0 0.0 0.00 0.00 0.00 86 1011.5
20260906054610 70 80 0.0 0.0 0.00 0.00 0.00 86 1011.6
20260906054057 70 80 0.0 0.0 0.00 0.00 0.00 86 1011.7
20260906053554 70 80 0.0 0.0 0.00 0.00 0.00 86 1011.8
20260906053054 70 80 0.0 0.0 0.00 0.00 0.00 86 1011.8
20260906052553 71 80 0.0 0.0 0.00 0.00 0.00 86 1012.0
20260906052053 71 80 0.0 0.0 0.00 0.00 0.00 86 1012.1
20260906051552 71 80 0.0 0.0 0.00 0.00 0.00 86 1012.2
20260906051052 71 80 0.0 0.0 0.00 0.00 0.00 86 1012.2
20260906050551 71 80 0.0 0.0 0.00 0.00 0.00 85 1012.3
20260906050059 71 80 0.0 0.0 0.00 0.00 0.00 85 1012.3
20260906045548 71 80 0.0 0.0 0.00 0.00 0.00 85 1012.2
20260906045048 72 80 0.0 0.0 0.00 0.00 0.00 83 1012.2
20260906044546 73 96 0.0 0.0 0.00 0.00 0.00 83 1012.1
20260906044047 73 96 0.0 0.0 0.00 0.00 0.00 82 1011.9
20260906043545 73 96 0.0 0.0 0.00 0.00 0.00 82 1012.0
20260906043046 73 96 0.0 0.0 0.00 0.00 0.00 82 1012.0
20260906042545 73 96 0.0 0.0 0.00 0.00 0.00 82 1012.0
20260906042045 73 96 0.0 0.0 0.00 0.00 0.00 81 1011.9
20260906041544 73 96 0.0 0.0 0.00 0.00 0.00 82 1011.9
20260906041043 73 96 0.0 0.0 0.00 0.00 0.00 82 1011.7
20260906040542 73 96 0.0 0.0 0.00 0.00 0.00 82 1011.7
20260906040047 73 96 0.0 0.0 0.00 0.00 0.00 82 1011.7
20260906035542 73 96 0.0 0.0 0.00 0.00 0.00 82 1011.8
20260906035041 73 96 0.0 0.0 0.00 0.00 0.00 82 1011.8
20260906034548 73 96 0.0 0.0 0.00 0.00 0.00 83 1011.9
20260906034040 73 96 0.0 0.0 0.00 0.00 0.00 83 1012.1
20260906033540 72 96 0.0 0.0 0.00 0.00 0.00 83 1012.1
20260906033040 72 96 0.0 0.0 0.00 0.00 0.00 83 1012.2
20260906032542 73 96 0.0 0.0 0.00 0.00 0.00 83 1012.3
20260906032041 73 96 0.0 0.0 0.00 0.00 0.00 83 1012.3
20260906031603 73 96 0.0 0.0 0.00 0.00 0.00 83 1012.2
20260906031044 73 96 0.0 0.0 0.00 0.00 0.00 83 1012.2
20260906030541 73 96 0.0 0.0 0.00 0.00 0.00 81 1012.1
20260906030041 73 96 0.0 0.0 0.00 0.00 0.00 80 1012.1
20260906025541 73 96 0.0 0.0 0.00 0.00 0.00 80 1012.1
20260906025039 73 96 0.0 0.0 0.00 0.00 0.00 79 1012.0
20260906024555 74 96 0.0 0.0 0.00 0.00 0.00 79 1012.0
20260906024042 74 96 0.0 0.0 0.00 0.00 0.00 80 1012.0
20260906023539 74 96 0.0 0.0 0.00 0.00 0.00 77 1012.0
20260906023044 74 96 0.0 0.0 0.00 0.00 0.00 76 1012.0
20260906022538 74 96 0.0 0.0 0.00 0.00 0.00 77 1012.0
20260906022040 74 96 0.0 0.0 0.00 0.00 0.00 77 1012.0
20260906021539 74 96 0.0 0.0 0.00 0.00 0.00 76 1012.0
20260906021038 74 96 0.0 0.0 0.00 0.00 0.00 78 1011.8
20260906020539 74 96 0.0 0.0 0.00 0.00 0.00 79 1011.8
20260906020039 74 96 0.0 0.0 0.00 0.00 0.00 80 1011.8
20260906015538 73 101 0.0 0.0 0.00 0.00 0.00 82 1011.8
20260906015038 73 101 0.0 0.0 0.00 0.00 0.00 82 1011.8
20260906014537 73 101 0.0 0.0 0.00 0.00 0.00 82 1011.6
20260906014040 74 101 0.0 0.0 0.00 0.00 0.00 82 1011.5
20260906013539 74 101 0.0 0.0 0.00 0.00 0.00 81 1011.4
20260906013037 74 101 0.0 0.0 0.00 0.00 0.00 80 1011.4
20260906012537 74 101 0.0 0.0 0.00 0.00 0.00 80 1011.3
20260906012038 75 101 0.0 0.0 0.00 0.00 0.00 81 1011.3
20260906011537 75 101 0.0 0.0 0.00 0.00 0.00 81 1011.3
20260906011039 75 101 0.0 0.0 0.00 0.00 0.00 79 1011.2
20260906010537 75 101 0.0 0.0 0.00 0.00 0.00 75 1011.1
20260906010047 76 101 0.0 0.0 0.00 0.00 0.00 76 1010.9
20260906005537 76 101 0.0 0.0 0.00 0.00 0.00 79 1010.9
20260906005035 76 101 0.0 0.0 0.00 0.00 0.00 79 1010.9
20260906004535 76 101 0.0 0.0 0.00 0.00 0.00 79 1010.9
20260906004035 76 101 0.0 0.0 0.00 0.00 0.00 78 1010.8
20260906003535 76 101 0.0 0.0 0.00 0.00 0.00 78 1010.7
20260906003036 76 101 0.0 0.0 0.00 0.00 0.00 78 1010.8
20260906002535 76 101 0.0 0.0 0.00 0.00 0.00 78 1010.8
20260906002037 76 101 0.0 0.0 0.00 0.00 0.00 77 1010.8
20260906001536 76 101 0.0 0.0 0.00 0.00 0.00 77 1010.9
20260906001035 76 101 0.0 0.0 0.00 0.00 0.00 76 1011.0
20260906000535 76 101 0.0 0.0 0.00 0.00 0.00 76 1011.0
20260906000037 77 101 0.0 0.0 0.00 0.00 0.00 77 1011.0
20260905235534 77 101 0.0 0.0 0.00 0.00 0.00 77 1011.1
20260905235034 77 101 0.0 0.0 0.00 0.00 0.00 77 1011.1
20260905234536 78 101 0.0 0.0 0.00 0.00 0.00 75 1010.9
20260905234035 78 101 0.0 0.0 0.00 0.00 0.00 75 1010.9
20260905233537 78 101 0.0 0.0 0.00 0.00 0.00 73 1011.0
20260905233034 78 101 0.0 0.0 0.00 0.00 0.00 73 1010.8
20260905232534 78 101 0.0 0.0 0.00 0.00 0.00 74 1010.8
20260905232036 78 101 0.0 0.0 0.00 0.00 0.00 75 1010.8
20260905231532 78 101 0.0 0.0 0.00 0.00 0.00 75 1010.8
20260905231033 79 101 0.0 0.0 0.00 0.00 0.00 76 1011.0
20260905230535 79 101 0.0 0.0 0.00 0.00 0.00 75 1010.8
20260905230035 79 101 0.0 0.0 0.00 0.00 0.00 73 1010.7
20260905225535 79 101 0.0 0.0 0.00 0.00 0.00 72 1010.8
20260905225034 79 101 0.0 0.0 0.00 0.00 0.00 71 1010.6
20260905224531 80 101 0.0 0.0 0.00 0.00 0.00 70 1010.7
20260905224030 80 101 0.0 0.0 0.00 0.00 0.00 71 1010.8
20260905223530 80 101 0.0 0.0 0.00 0.00 0.00 71 1010.9
20260905223031 80 101 0.0 0.0 0.00 0.00 0.00 70 1011.1
20260905222530 80 101 0.0 0.0 0.00 0.00 0.00 70 1011.1
20260905222030 80 101 0.0 0.9 0.00 0.00 0.00 68 1011.2
20260905221530 80 101 0.0 0.9 0.00 0.00 0.00 69 1011.0
20260905221030 80 94 0.0 1.7 0.00 0.00 0.00 68 1010.9
20260905220529 80 94 0.0 2.6 0.00 0.00 0.00 68 1011.0
20260905220031 81 105 0.0 0.9 0.00 0.00 0.00 71 1011.0
20260905215529 80 111 0.0 0.9 0.00 0.19 0.00 71 1010.8
20260905215030 80 110 0.0 1.7 0.00 0.19 0.00 72 1010.8
20260905214528 80 89 0.0 1.7 0.00 0.19 0.00 73 1010.9
20260905214029 80 87 0.0 0.0 0.00 0.19 0.00 73 1010.9
20260905213527 80 80 0.0 0.0 0.00 0.19 0.00 75 1011.0
20260905213027 81 80 0.0 0.0 0.00 0.19 0.00 75 1011.0
20260905212527 81 80 0.0 0.0 0.00 0.19 0.00 75 1011.2
20260905212026 81 80 0.0 0.0 0.00 0.19 0.00 75 1011.2
20260905211552 81 80 0.0 0.0 0.00 0.19 0.00 72 1011.2
20260905211027 81 80 0.0 0.0 0.00 0.19 0.00 70 1011.3
20260905210527 81 80 0.0 0.9 0.00 0.19 0.00 69 1011.4
20260905210026 82 80 0.0 0.9 0.00 0.19 0.00 70 1011.5
20260905205526 82 80 0.0 0.9 0.00 0.19 0.00 68 1011.4
20260905205025 83 104 0.0 0.0 0.00 0.19 0.00 65 1011.2
20260905204525 83 110 0.0 0.0 0.00 0.19 0.00 64 1011.1
20260905204025 84 71 0.0 0.0 0.00 0.19 0.00 65 1011.1
20260905203525 84 71 0.0 0.0 0.00 0.19 0.00 64 1011.0
20260905203025 84 71 0.0 1.7 0.00 0.19 0.00 62 1010.9
20260905202526 84 71 0.0 1.7 0.00 0.19 0.00 61 1011.1
20260905202023 85 52 0.0 0.0 0.00 0.19 0.00 62 1011.4
20260905201531 85 52 0.0 0.0 0.00 0.19 0.00 62 1011.4
20260905201022 85 52 0.0 0.0 0.00 0.19 0.00 60 1011.5
20260905200522 85 53 0.0 0.0 0.00 0.19 0.00 63 1011.6
20260905200022 85 53 0.0 0.0 0.00 0.19 0.00 62 1011.7
20260905195522 85 53 0.0 1.7 0.00 0.19 0.00 66 1011.7
20260905195022 85 53 0.0 2.6 0.00 0.19 0.00 66 1011.6
20260905194522 85 55 0.0 2.6 0.00 0.19 0.00 67 1011.4
20260905194021 85 154 0.0 1.7 0.00 0.19 0.00 67 1011.4
20260905193521 85 144 0.0 1.7 0.00 0.19 0.00 66 1011.4
20260905193021 84 75 0.0 1.7 0.00 0.19 0.00 67 1011.3
20260905192520 84 75 0.0 1.7 0.00 0.19 0.00 66 1011.4
20260905192020 84 49 0.0 1.7 0.00 0.19 0.00 65 1011.5
20260905191519 84 82 0.0 1.7 0.00 0.19 0.00 66 1011.9
20260905191021 84 60 0.0 2.6 0.00 0.19 0.00 66 1011.9
20260905190519 85 117 0.0 2.6 0.00 0.19 0.00 65 1011.9
20260905190019 85 48 0.0 2.6 0.00 0.19 0.00 65 1012.2
20260905185517 85 65 0.9 1.7 0.00 0.19 0.00 66 1012.1
20260905185021 85 57 0.0 1.7 0.00 0.19 0.00 64 1011.8
20260905184518 86 57 0.0 1.7 0.00 0.19 0.00 65 1011.7
20260905184017 86 70 0.0 1.7 0.00 0.19 0.00 65 1011.7
20260905183517 86 103 0.0 0.0 0.00 0.19 0.00 67 1011.8
20260905183027 86 178 0.0 0.0 0.00 0.19 0.00 65 1011.9
20260905182514 86 164 0.0 1.7 0.00 0.19 0.00 66 1012.1
20260905182014 86 164 0.0 1.7 0.00 0.19 0.00 65 1012.1
20260905181513 86 121 0.0 0.9 0.00 0.19 0.00 66 1012.1
20260905181011 86 159 0.0 0.9 0.00 0.19 0.00 65 1012.2
20260905180511 86 85 0.0 0.0 0.00 0.19 0.00 64 1012.3
20260905180010 86 85 0.0 0.0 0.00 0.19 0.00 66 1012.3
20260905175510 86 85 0.0 0.0 0.00 0.19 0.00 65 1012.3
20260905175009 86 85 0.0 0.9 0.00 0.19 0.00 68 1012.3
20260905174509 86 85 0.0 0.9 0.00 0.19 0.00 67 1012.4
20260905174007 85 132 0.0 1.7 0.00 0.19 0.00 67 1012.5
20260905173507 85 132 0.0 1.7 0.00 0.19 0.00 68 1012.6
20260905173009 85 102 0.0 0.9 0.00 0.19 0.00 69 1012.7
20260905172506 85 102 0.0 0.9 0.00 0.19 0.00 65 1012.7
20260905172006 85 102 0.0 1.7 0.00 0.19 0.00 66 1012.7
20260905171505 85 167 0.0 1.7 0.00 0.19 0.00 67 1012.8
20260905171003 85 75 0.0 1.7 0.00 0.19 0.00 67 1012.8
20260905170503 85 86 0.0 0.0 0.00 0.19 0.00 67 1012.8
20260905170004 85 86 0.0 0.0 0.00 0.19 0.00 65 1012.9
20260905165504 85 86 0.0 0.0 0.00 0.19 0.00 70 1012.9
20260905165001 84 86 0.0 0.0 0.00 0.19 0.00 70 1012.9
20260905164501 84 86 0.0 0.0 0.00 0.19 0.00 71 1013.0
20260905164003 84 86 0.0 0.0 0.00 0.19 0.00 68 1013.2
20260905163503 84 90 0.0 0.0 0.00 0.19 0.00 67 1013.2
20260905163001 85 90 0.0 0.0 0.00 0.19 0.00 68 1013.2
20260905162502 85 90 0.0 0.0 0.00 0.19 0.00 71 1013.2
20260905162101 85 90 0.0 0.0 0.00 0.19 0.00 71 1013.3
20260905161601 85 90 0.0 0.0 0.00 0.19 0.00 71 1013.4
20260905161100 85 94 0.0 0.0 0.00 0.19 0.00 71 1013.4
20260905161001 85 94 0.0 0.0 0.00 0.19 0.00 71 1013.5
20260905160600 85 94 0.0 0.0 0.00 0.19 0.00 72 1013.3
20260905160059 85 94 0.0 0.0 0.00 0.19 0.00 76 1013.4
20260905155557 84 94 0.0 0.0 0.00 0.19 0.00 75 1013.5
20260905155057 84 94 0.0 0.0 0.00 0.19 0.00 75 1013.6
20260905154559 83 74 0.0 0.0 0.00 0.19 0.00 77 1013.7
20260905154055 83 74 0.0 0.0 0.00 0.19 0.00 79 1013.7
20260905153553 82 74 0.0 0.0 0.00 0.19 0.00 78 1013.7
20260905153053 82 74 0.0 0.0 0.00 0.19 0.00 78 1013.7
20260905152552 82 63 0.0 0.0 0.00 0.19 0.00 80 1013.8
20260905152051 81 63 0.0 0.0 0.00 0.19 0.00 81 1013.8
20260905151550 80 63 0.0 0.0 0.00 0.19 0.00 81 1013.8
20260905151048 80 63 0.0 0.0 0.00 0.19 0.00 82 1013.9
20260905150547 80 63 0.0 0.0 0.00 0.19 0.00 82 1013.9
20260905150047 79 63 0.0 0.0 0.00 0.19 0.00 83 1014.0
20260905145543 79 63 0.0 0.9 0.00 0.19 0.00 82 1014.0
20260905145042 78 63 0.0 0.9 0.00 0.19 0.00 85 1014.0
20260905144542 78 64 0.0 0.0 0.00 0.19 0.00 85 1014.1
20260905144044 77 64 0.0 0.0 0.00 0.19 0.00 84 1014.0
20260905143544 77 64 0.0 1.7 0.00 0.19 0.00 85 1014.1
20260905143048 77 64 0.0 1.7 0.00 0.19 0.00 86 1014.2
20260905142544 77 65 0.0 1.7 0.00 0.19 0.00 86 1014.2
20260905142039 77 71 0.0 1.7 0.00 0.19 0.00 85 1014.2
20260905141539 77 71 0.0 1.7 0.00 0.19 0.00 85 1014.3
20260905141037 77 55 0.0 1.7 0.00 0.19 0.00 85 1014.3
20260905140539 77 91 0.0 1.7 0.00 0.19 0.00 86 1014.4
20260905140036 76 103 0.0 0.0 0.00 0.19 0.00 84 1014.5
20260905135538 76 103 0.0 0.0 0.00 0.19 0.00 84 1014.5
20260905135036 76 103 0.0 0.0 0.00 0.19 0.00 83 1014.6
20260905134541 76 82 0.0 0.0 0.00 0.19 0.00 74 1014.7
20260905134032 75 82 0.0 0.0 0.00 0.19 0.00 73 1014.7
20260905133533 74 82 0.0 0.0 0.00 0.19 0.00 65 1014.7
20260905133032 74 81 0.0 0.0 0.00 0.19 0.00 51 1014.8
20260905132530 73 81 0.0 0.0 0.00 0.19 0.00 47 1014.7
20260905132034 73 81 0.0 0.0 0.00 0.19 0.00 42 1014.7
20260905131531 72 81 0.0 0.0 0.00 0.19 0.00 42 1014.7
20260905131030 72 110 0.0 0.0 0.00 0.19 0.00 41 1014.8
20260905130530 72 126 0.0 0.0 0.00 0.19 0.00 43 1014.8
20260905130030 71 133 0.0 0.0 0.00 0.19 0.00 43 1014.8
20260905125529 71 133 0.0 0.0 0.00 0.19 0.00 43 1014.8
20260905125028 71 72 0.0 0.0 0.00 0.19 0.00 42 1014.8
20260905124536 71 72 0.0 0.0 0.00 0.19 0.00 42 1014.8
20260905124029 71 72 0.0 0.0 0.00 0.19 0.00 43 1014.6
20260905123528 71 72 0.0 0.0 0.00 0.19 0.00 44 1014.6
20260905123027 70 72 0.0 0.0 0.00 0.19 0.00 44 1014.6
20260905122529 70 72 0.0 0.0 0.00 0.19 0.00 44 1014.6
20260905122026 70 72 0.0 0.0 0.00 0.19 0.00 45 1014.6
20260905121525 70 72 0.0 0.0 0.00 0.19 0.00 44 1014.5
20260905121025 70 72 0.0 0.0 0.00 0.19 0.00 44 1014.5
20260905120523 70 72 0.0 0.0 0.00 0.19 0.00 46 1014.3
20260905120026 70 72 0.0 0.0 0.00 0.19 0.00 46 1014.3
20260905115523 70 72 0.0 0.0 0.00 0.19 0.00 45 1014.3
20260905115022 70 72 0.0 0.0 0.00 0.19 0.00 45 1014.2
20260905114521 70 72 0.0 0.0 0.00 0.19 0.00 44 1014.1
20260905114024 70 72 0.0 0.0 0.00 0.19 0.00 45 1014.1
20260905113520 70 72 0.0 0.0 0.00 0.19 0.00 47 1014.1
20260905113022 69 72 0.0 0.0 0.00 0.19 0.00 51 1014.1
20260905112520 69 72 0.0 0.0 0.00 0.19 0.00 52 1013.9
20260905112019 69 72 0.0 0.0 0.00 0.19 0.00 53 1013.8
20260905111521 69 72 0.0 0.0 0.00 0.19 0.00 53 1013.7